timestamp,surface_pressure_avg,surface_temp_avg,battery_voltage,lat,long
2021-08-25 00:09:01+00:00,352.593,18.12,12.73,47.84626,-54.09684
2021-08-25 00:19:01+00:00,358.403,18.13,12.73,47.84626,-54.09684
2021-08-25 00:29:01+00:00,365.9496,18.13,12.73,47.84626,-54.09684
2021-08-25 00:39:01+00:00,370.8246,18.13,12.73,47.84626,-54.09684
2021-08-25 00:49:01+00:00,371.5013,18.13,12.73,47.84626,-54.09684
2021-08-25 00:59:01+00:00,375.0546,18.13,12.73,47.84626,-54.09684
2021-08-25 01:09:01+00:00,378.7646,18.13,12.73,47.84626,-54.09684
2021-08-25 01:19:01+00:00,378.7263,18.13,12.73,47.84626,-54.09684
2021-08-25 01:29:01+00:00,380.4113,18.14,12.73,47.84626,-54.09684
2021-08-25 01:39:01+00:00,381.9879,18.14,12.73,47.84626,-54.09684
2021-08-25 01:49:01+00:00,379.6429,18.14,12.73,47.84626,-54.09684
2021-08-25 01:59:01+00:00,375.5946,18.15,12.73,47.84626,-54.09684
2021-08-25 02:09:01+00:00,373.24800000000016,18.15,12.73,47.84626,-54.09684
2021-08-25 02:19:01+00:00,372.0396,18.15,12.73,47.84626,-54.09684
2021-08-25 02:29:01+00:00,367.9413,18.16,12.73,47.84626,-54.09684
2021-08-25 02:39:01+00:00,363.5129,18.16,12.73,47.84626,-54.09684
2021-08-25 02:49:01+00:00,359.9429,18.17,12.73,47.84626,-54.09684
2021-08-25 02:59:01+00:00,355.2363,18.16,12.73,47.84626,-54.09684
2021-08-25 03:09:01+00:00,353.2979,18.16,12.73,47.84626,-54.09684
2021-08-25 03:19:01+00:00,348.1363,18.16,12.73,47.84626,-54.09684
2021-08-25 03:29:01+00:00,337.4246,18.16,12.73,47.84626,-54.09684
2021-08-25 03:39:01+00:00,326.1013,18.18,12.73,47.84626,-54.09684
2021-08-25 03:49:01+00:00,323.3914,18.18,12.73,47.84626,-54.09684
2021-08-25 03:59:01+00:00,313.6463,18.18,12.73,47.84626,-54.09684
2021-08-25 04:09:01+00:00,301.4197,18.19,12.73,47.84626,-54.09684
2021-08-25 04:19:00+00:00,291.5681,18.19,12.73,47.84626,-54.09684
2021-08-25 04:29:00+00:00,283.8864,18.19,12.73,47.84626,-54.09684
2021-08-25 04:39:00+00:00,274.4948,18.16,12.73,47.84626,-54.09684
2021-08-25 04:49:00+00:00,264.7897,18.17,12.73,47.84626,-54.09684
2021-08-25 04:59:00+00:00,255.4198,18.17,12.73,47.84626,-54.09684
2021-08-25 05:09:00+00:00,245.7798,18.16,12.73,47.84626,-54.09684
2021-08-25 05:19:01+00:00,238.8714,18.15,12.73,47.84626,-54.09684
2021-08-25 05:29:01+00:00,229.2614,18.16,12.73,47.84626,-54.09684
2021-08-25 05:39:01+00:00,218.1331,18.15,12.73,47.84626,-54.09684
2021-08-25 05:49:01+00:00,206.6898,18.15,12.73,47.84626,-54.09684
2021-08-25 05:59:01+00:00,198.9865,18.15,12.73,47.84626,-54.09684
2021-08-25 06:09:01+00:00,195.0715,18.16,12.73,47.84626,-54.09684
2021-08-25 06:19:01+00:00,190.2031,18.16,12.73,47.84626,-54.09684
2021-08-25 06:29:01+00:00,184.2931,18.15,12.73,47.84626,-54.09684
2021-08-25 06:39:01+00:00,177.1682,18.16,12.73,47.84626,-54.09684
2021-08-25 06:49:01+00:00,171.9498,18.17,12.73,47.84626,-54.09684
2021-08-25 06:59:01+00:00,171.4915,18.18,12.73,47.84626,-54.09684
2021-08-25 07:09:01+00:00,171.2248,18.19,12.73,47.84626,-54.09684
2021-08-25 07:19:01+00:00,172.1948,18.2,12.65,47.84626,-54.09684
2021-08-25 07:29:01+00:00,176.1631,18.2,12.65,47.84626,-54.09684
2021-08-25 07:39:01+00:00,179.4048,18.2,12.65,47.84626,-54.09684
2021-08-25 07:49:01+00:00,181.5015,18.2,12.65,47.84626,-54.09684
2021-08-25 07:59:01+00:00,185.5615,18.2,12.65,47.84626,-54.09684
2021-08-25 08:09:01+00:00,190.0815,18.2,12.65,47.84626,-54.09684
2021-08-25 08:19:01+00:00,191.8597,18.2,12.65,47.84626,-54.09684
2021-08-25 08:29:01+00:00,193.7932,18.2,12.65,47.84626,-54.09684
2021-08-25 08:39:01+00:00,200.6131,18.2,12.65,47.84626,-54.09684
2021-08-25 08:49:01+00:00,208.7881,18.2,12.65,47.84626,-54.09684
2021-08-25 08:59:01+00:00,216.0581,18.2,12.65,47.84626,-54.09684
2021-08-25 09:09:01+00:00,218.0814,18.2,12.65,47.84626,-54.09684
2021-08-25 09:19:01+00:00,219.5798,18.2,12.65,47.84626,-54.09684
2021-08-25 09:29:01+00:00,227.7214,18.2,12.65,47.84626,-54.09684
2021-08-25 09:39:01+00:00,233.5848,18.2,12.65,47.84626,-54.09684
2021-08-25 09:49:01+00:00,231.8564,18.2,12.65,47.84626,-54.09684
2021-08-25 09:59:01+00:00,234.9598,18.2,12.65,47.84626,-54.09684
2021-08-25 10:09:01+00:00,243.2664,18.2,12.65,47.84626,-54.09684
2021-08-25 10:19:01+00:00,248.6014,18.2,12.65,47.84626,-54.09684
2021-08-25 10:29:01+00:00,252.0031,18.2,12.65,47.84626,-54.09684
2021-08-25 10:39:01+00:00,258.9964,18.2,12.65,47.84626,-54.09684
2021-08-25 10:49:01+00:00,264.2864,18.22,12.65,47.84626,-54.09684
2021-08-25 10:59:01+00:00,265.0331,18.25,12.65,47.84626,-54.09684
2021-08-25 11:09:01+00:00,269.4064,18.26,12.65,47.84626,-54.09684
2021-08-25 11:19:01+00:00,279.9714,18.25,12.89,47.84626,-54.09684
2021-08-25 11:29:01+00:00,287.1281,18.26,12.89,47.84626,-54.09684
2021-08-25 11:39:01+00:00,289.5397,18.29,12.89,47.84626,-54.09684
2021-08-25 11:49:01+00:00,294.7413,18.3,12.89,47.84626,-54.09684
2021-08-25 11:59:01+00:00,306.3563,18.3,12.89,47.84626,-54.09684
2021-08-25 12:09:01+00:00,315.0746,18.3,12.89,47.84626,-54.09684
2021-08-25 12:19:01+00:00,322.4863,18.3,13.05,47.84626,-54.09684
2021-08-25 12:29:01+00:00,329.5030000000001,18.3,13.05,47.84626,-54.09684
2021-08-25 12:39:01+00:00,336.4146,18.29,13.05,47.84626,-54.09684
2021-08-25 12:49:01+00:00,337.9413,18.29,13.05,47.84626,-54.09684
2021-08-25 12:59:01+00:00,338.6447,18.27,13.05,47.84626,-54.09684
2021-08-25 13:09:01+00:00,342.4696,18.26,13.05,47.84626,-54.09684
2021-08-25 13:19:01+00:00,342.9014,18.24,13.6,47.84626,-54.09684
2021-08-25 13:29:01+00:00,342.7296,18.23,13.6,47.84626,-54.09684
2021-08-25 13:39:01+00:00,345.9946,18.21,13.6,47.84626,-54.09684
2021-08-25 13:49:01+00:00,346.5979,18.24,13.6,47.84626,-54.09684
2021-08-25 13:59:01+00:00,347.0679,18.23,13.6,47.84626,-54.09684
2021-08-25 14:09:01+00:00,349.1829,18.23,13.6,47.84626,-54.09684
2021-08-25 14:19:01+00:00,349.5164,18.24,14.24,47.84626,-54.09684
2021-08-25 14:29:01+00:00,345.3229,18.26,14.24,47.84626,-54.09684
2021-08-25 14:39:01+00:00,342.4163,18.26,14.24,47.84626,-54.09684
2021-08-25 14:49:01+00:00,341.5579,18.26,14.24,47.84626,-54.09684
2021-08-25 14:59:01+00:00,336.7146,18.25,14.24,47.84626,-54.09684
2021-08-25 15:09:01+00:00,331.0397,18.26,14.24,47.84626,-54.09684
2021-08-25 15:19:01+00:00,329.2479,18.24,14.32,47.84626,-54.09684
2021-08-25 15:29:01+00:00,327.98800000000006,18.25,14.32,47.84626,-54.09684
2021-08-25 15:39:01+00:00,321.7213,18.27,14.32,47.84626,-54.09684
2021-08-25 15:49:01+00:00,315.2713,18.3,14.32,47.84626,-54.09684
2021-08-25 15:59:01+00:00,312.293,18.29,14.32,47.84626,-54.09684
2021-08-25 16:09:01+00:00,307.1014,18.3,14.32,47.84626,-54.09684
2021-08-25 16:19:01+00:00,297.7513,18.33,14.24,47.84626,-54.09684
2021-08-25 16:29:01+00:00,288.593,18.49,14.24,47.84626,-54.09684
2021-08-25 16:39:01+00:00,281.7147,18.47,14.24,47.84626,-54.09684
2021-08-25 16:49:01+00:00,272.6481,18.47,14.24,47.84626,-54.09684
2021-08-25 16:59:01+00:00,264.6964,18.5,14.24,47.84626,-54.09684
2021-08-25 17:09:01+00:00,258.8414,18.59,14.24,47.84626,-54.09684
2021-08-25 17:19:01+00:00,249.4664,18.72,13.84,47.84626,-54.09684
2021-08-25 17:29:01+00:00,237.6148,18.9,13.84,47.84626,-54.09684
2021-08-25 17:39:01+00:00,229.5315,19.0,13.84,47.84626,-54.09684
2021-08-25 17:49:01+00:00,224.5881,19.0,13.84,47.84626,-54.09684
2021-08-25 17:59:01+00:00,217.3614,19.06,13.84,47.84626,-54.09684
2021-08-25 18:09:01+00:00,209.1748,19.1,13.84,47.84626,-54.09684
2021-08-25 18:19:01+00:00,202.8348,19.13,14.0,47.84626,-54.09684
2021-08-25 18:29:01+00:00,199.5265,19.1,14.0,47.84626,-54.09684
2021-08-25 18:39:01+00:00,194.7815,19.1,14.0,47.84626,-54.09684
2021-08-25 18:49:01+00:00,188.3281,19.0,14.0,47.84626,-54.09684
2021-08-25 18:59:01+00:00,185.9965,18.9,14.0,47.84626,-54.09684
2021-08-25 19:09:01+00:00,187.2415,18.79,14.0,47.84626,-54.09684
2021-08-25 19:19:01+00:00,182.6048,18.7,13.68,47.84626,-54.09684
2021-08-25 19:29:01+00:00,180.9548,18.7,13.68,47.84626,-54.09684
2021-08-25 19:39:01+00:00,185.4714,18.7,13.68,47.84626,-54.09684
2021-08-25 19:49:01+00:00,186.2965,18.7,13.68,47.84626,-54.09684
2021-08-25 19:59:01+00:00,185.4231,18.76,13.68,47.84626,-54.09684
2021-08-25 20:09:01+00:00,191.5764,18.78,13.68,47.84626,-54.09684
2021-08-25 20:19:01+00:00,201.1548,18.79,13.6,47.84626,-54.09684
2021-08-25 20:29:01+00:00,201.5214,18.8,13.6,47.84626,-54.09684
2021-08-25 20:39:01+00:00,201.8065,18.8,13.6,47.84626,-54.09684
2021-08-25 20:49:01+00:00,210.7864,18.8,13.6,47.84626,-54.09684
2021-08-25 20:59:01+00:00,217.3031,18.8,13.6,47.84626,-54.09684
2021-08-25 21:09:01+00:00,217.6698,18.96,13.6,47.84626,-54.09684
2021-08-25 21:19:01+00:00,221.7364,19.2,13.21,47.84626,-54.09684
2021-08-25 21:29:01+00:00,228.8731,19.2,13.21,47.84626,-54.09684
2021-08-25 21:39:01+00:00,232.7198,19.2,13.21,47.84626,-54.09684
2021-08-25 21:49:01+00:00,236.2081,19.18,13.21,47.84626,-54.09684
2021-08-25 21:59:01+00:00,242.3531,19.2,13.21,47.84626,-54.09684
2021-08-25 22:09:01+00:00,247.5614,19.2,13.21,47.84626,-54.09684
2021-08-25 22:19:01+00:00,250.5931,19.2,12.89,47.84626,-54.09684
2021-08-25 22:29:01+00:00,253.1515,19.16,12.89,47.84626,-54.09684
2021-08-25 22:39:01+00:00,257.1398,19.18,12.89,47.84626,-54.09684
2021-08-25 22:49:01+00:00,262.7148,19.2,12.89,47.84626,-54.09684
2021-08-25 22:59:01+00:00,269.2414,19.2,12.89,47.84626,-54.09684
2021-08-25 23:09:01+00:00,274.138,19.2,12.89,47.84626,-54.09684
2021-08-25 23:19:01+00:00,280.5264,19.2,12.73,47.84626,-54.09684
2021-08-25 23:29:01+00:00,286.6131,19.23,12.73,47.84626,-54.09684
2021-08-25 23:39:01+00:00,293.7314,19.29,12.73,47.84626,-54.09684
2021-08-25 23:49:01+00:00,301.218,19.3,12.73,47.84626,-54.09684
2021-08-25 23:59:01+00:00,308.8964,19.3,12.73,47.84626,-54.09684
